Stevenson, Washington, United States (98648)
Lat: 45.70N, Lon: 121.88W
Wx Zone: WAZ023
Local Info
Past Weather Observations for Today

NOTE: This archive is for the closest National Weather Service station to Stevenson. Information may differ from the station used for current weather conditions.

Click here for Long-term Archive

Time Weather Temperature Dewpoint Humidity Pressure Winds Precip Visibility
23:40
Overcast
Light Rain
52°F / 11°C 50°F / 10°C 94% 30.18 in
(1022 mb)
SW 8.1 mph
(SW 13 kph)
0.01 in
(0.25 mm)
5SM
23:19
Overcast
Light Rain
52°F / 11°C 52°F / 11°C 100% 30.18 in
(1022 mb)
SW 4.6 mph
(SW 7 kph)
0.01 in
(0.25 mm)
6SM
23:03
Overcast
Light Rain
52°F / 11°C 50°F / 10°C 94% 30.15 in
(1021 mb)
SW 5.8 mph
(SW 9 kph)
0.01 in
(0.25 mm)
3SM
22:53
Overcast
Light Rain
52°F / 11°C 50°F / 10°C 94% 30.15 in
(1021 mb)
SW 6.9 mph
(SW 11 kph)
0.03 in
(0.76 mm)
2 1/2SM
21:53
Overcast
Light Rain
54°F / 12°C 48°F / 9°C 82% 30.15 in
(1021 mb)
SW 9.2 mph
(SW 15 kph)
0.00 in
(0.00 mm)
10SM
20:53
Overcast
54°F / 12°C 46°F / 8°C 77% 30.15 in
(1021 mb)
SW 12.7 mph
(SW 20 kph)
0.00 in
(0.00 mm)
10SM
19:53
Overcast
Light Rain
54°F / 12°C 48°F / 9°C 82% 30.15 in
(1021 mb)
SW 10.4 mph
(SW 17 kph)
0.00 in
(0.00 mm)
10SM
18:53
Overcast
54°F / 12°C 52°F / 11°C 94% 30.15 in
(1021 mb)
SW 9.2 mph
(SW 15 kph)
0.01 in
(0.25 mm)
10SM
17:53
Overcast
54°F / 12°C 48°F / 9°C 82% 30.12 in
(1020 mb)
SSW 10.4 mph
(SSW 17 kph)
0.00 in
(0.00 mm)
10SM
16:53
Overcast
Light Rain
54°F / 12°C 52°F / 11°C 94% 30.12 in
(1020 mb)
SSW 8.1 mph
(SSW 13 kph)
0.01 in
(0.25 mm)
10SM
15:53
Overcast
55°F / 13°C 50°F / 10°C 82% 30.09 in
(1019 mb)
SW 5.8 mph
(SW 9 kph)
0.00 in
(0.00 mm)
9SM
14:53
Overcast
55°F / 13°C 48°F / 9°C 77% 30.09 in
(1019 mb)
SW 8.1 mph
(SW 13 kph)
- 10SM
13:53
Overcast
55°F / 13°C 48°F / 9°C 77% 30.06 in
(1018 mb)
SW 12.7 mph
(SW 20 kph)
0.00 in
(0.00 mm)
10SM
12:53
Overcast
55°F / 13°C 48°F / 9°C 77% 30.06 in
(1018 mb)
SW 11.5 mph
(SW 19 kph)
0.00 in
(0.00 mm)
10SM
11:53
Overcast
55°F / 13°C 48°F / 9°C 77% 30.06 in
(1018 mb)
SSW 8.1 mph
(SSW 13 kph)
- 10SM
10:53
Overcast
55°F / 13°C 48°F / 9°C 77% 30.06 in
(1018 mb)
WNW 3.5 mph
(WNW 6 kph)
- 10SM
09:53
Overcast
55°F / 13°C 48°F / 9°C 77% 30.04 in
(1017 mb)
SSW 9.2 mph
(SSW 15 kph)
0.00 in
(0.00 mm)
10SM
08:53
Overcast
Light Rain
55°F / 13°C 48°F / 9°C 77% 29.98 in
(1015 mb)
SW 12.7 mph
(SW 20 kph)
0.00 in
(0.00 mm)
10SM
07:53
Partly Cloudy
55°F / 13°C 48°F / 9°C 77% 29.95 in
(1014 mb)
SW 15 mph
(SW 24 kph)
- 10SM
06:53
Overcast
55°F / 13°C 48°F / 9°C 77% 29.95 in
(1014 mb)
SW 13.8 mph
(SW 22 kph)
- 10SM
05:53
Overcast
55°F / 13°C 48°F / 9°C 77% 29.92 in
(1013 mb)
SW 10.4 mph
(SW 17 kph)
- 10SM
04:53
Overcast
55°F / 13°C 50°F / 10°C 82% 29.89 in
(1012 mb)
SSE 9.2 mph
(SSE 15 kph)
- 10SM
03:53
Partly Cloudy
57°F / 14°C 48°F / 9°C 72% 29.89 in
(1012 mb)
SW 11.5 mph
(SW 19 kph)
- 10SM
02:53
Mostly Cloudy
57°F / 14°C 50°F / 10°C 77% 29.83 in
(1010 mb)
SW 11.5 mph
(SW 19 kph)
- 10SM
01:53
Mostly Cloudy
59°F / 15°C 48°F / 9°C 68% 29.8 in
(1009 mb)
SSW 12.7 mph
(SSW 20 kph)
- 10SM
00:53
Overcast
59°F / 15°C 54°F / 12°C 82% 29.77 in
(1008 mb)
SSW 18.4 mph
(SSW 30 kph)
0.00 in
(0.00 mm)
10SM
00:41
Overcast
59°F / 15°C 54°F / 12°C 82% 29.74 in
(1007 mb)
SSW 18.4 mph
(SSW 30 kph)
0.00 in
(0.00 mm)
10SM
Time Weather Temperature Dewpoint Humidity Pressure Winds Precip Visibility


Weather for websites

WeatherForYou.com, LLC is not responsible for any damages or problems caused by this service. Current weather conditions are obtained from the closest station including government and personal stations which may have varying degrees of accuracy. Weather forecasts are derived from the NOAA NDFD. Like all things, this site belongs to Jesus Christ... He just trusts me to maintain it. If you have any questions or comments email webmaster@weatherforyou.com

Copyright © 2014, WeatherForYou.com LLC. All rights reserved.